Simultaneous Nadir Overpasses (SNOs) Predictions

Prediction of SNOs over PacNW region [( 10.00, 139.50) to ( 22.70, 165.60)] between AQUA and NPP Satellites:

Table of predicted SNOs over PacNW region for the next 30.0 days since TLE Epoch: 7/20/2013
Index Date (AQUA) Time (AQUA) AQUA Lat,Lon Date (NPP) Time (NPP) NPP Lat,Lon Distance(km) Time Diff (sec)
1 07/24/2013 15:59:31 22.60, 147.47 07/24/2013 16:01:28 23.22, 144.61 300.20 117
2 08/01/2013 15:09:54 22.61, 159.87 08/01/2013 15:10:56 23.21, 157.27 274.24 62
3 08/04/2013 03:31:40 22.69, 147.56 08/04/2013 03:28:10 25.93, 144.93 447.87 210
4 08/09/2013 15:59:06 22.62, 147.56 08/09/2013 16:01:51 23.30, 144.58 314.47 165




NCC Satellite Simultaneous Nadir Overpasses (SNOs) Prediction Service
